When you browse on this site, cookies collect data to enhance your experience and personalize the content and advertising you see.
Visit our Privacy Policy to learn more. By continuing to use the site, you agree to this use of cookies and data.
  • In France
  • List of Countries
  • For 7 days
  • Water Temperature
  • Satellite Maps
  • Weather Map
  • Weather Widgets
  • user-avatar
    Login

    Hourly Weather Borovec

    Today, 21 March, Thursday

    Time Temperature Precipitation Wind Pressure Humidity
    00:00 +8°C° 0 mm 2 mps 719 mmHg 87%
    01:00 +8°C° 0 mm 2 mps 719 mmHg 87%
    02:00 +8°C° 0 mm 2 mps 720 mmHg 86%
    03:00 +8°C° 0 mm 2 mps 720 mmHg 87%
    04:00 +7°C° 0 mm 2 mps 720 mmHg 87%
    05:00 +7°C° 0 mm 2 mps 720 mmHg 88%
    06:00 +7°C° 0 mm 2 mps 720 mmHg 87%
    07:00 +7°C° 0 mm 2 mps 721 mmHg 86%
    08:00 +8°C° 0 mm 1 mps 721 mmHg 84%
    09:00 +8°C° 0 mm 2 mps 721 mmHg 79%
    10:00 +9°C° 0 mm 2 mps 721 mmHg 73%
    11:00 +10°C° 0 mm 2 mps 721 mmHg 68%
    12:00 +10°C° 0 mm 2 mps 721 mmHg 66%
    13:00 +12°C° 0 mm 2 mps 720 mmHg 64%
    14:00 +12°C° 0 mm 2 mps 720 mmHg 62%
    15:00 +12°C° 0 mm 2 mps 720 mmHg 62%
    16:00 +12°C° 0 mm 2 mps 720 mmHg 63%
    17:00 +12°C° 0 mm 2 mps 719 mmHg 63%
    18:00 +10°C° 0 mm 2 mps 719 mmHg 68%
    19:00 +9°C° 0 mm 2 mps 719 mmHg 73%
    20:00 +8°C° 0 mm 2 mps 719 mmHg 77%
    21:00 +8°C° 0 mm 1 mps 720 mmHg 81%
    22:00 +7°C° 0 mm 1 mps 720 mmHg 84%
    23:00 +7°C° 0 mm 1 mps 720 mmHg 88%

    Tomorrow, 22 March, Friday

    Time Temperature Precipitation Wind Pressure Humidity
    00:00 +6°C° 0 mm 1 mps 720 mmHg 89%
    01:00 +5°C° 0 mm 0 mps 720 mmHg 90%
    02:00 +5°C° 0 mm 0 mps 720 mmHg 91%
    03:00 +5°C° 0 mm 0 mps 720 mmHg 91%
    04:00 +4°C° 0 mm 0 mps 719 mmHg 91%
    05:00 +4°C° 0 mm 0 mps 719 mmHg 91%
    06:00 +5°C° 0 mm 0 mps 720 mmHg 87%
    07:00 +6°C° 0 mm 0 mps 720 mmHg 83%
    08:00 +6°C° 0 mm 0 mps 720 mmHg 79%
    09:00 +9°C° 0 mm 1 mps 720 mmHg 70%
    10:00 +11°C° 0 mm 1 mps 720 mmHg 60%
    11:00 +13°C° 0 mm 1 mps 720 mmHg 51%
    12:00 +14°C° 0 mm 2 mps 719 mmHg 46%
    13:00 +15°C° 0 mm 2 mps 719 mmHg 42%
    14:00 +16°C° 0 mm 2 mps 718 mmHg 38%
    15:00 +16°C° 0 mm 2 mps 718 mmHg 39%
    16:00 +16°C° 0 mm 3 mps 718 mmHg 40%
    17:00 +14°C° 0 mm 3 mps 717 mmHg 41%
    18:00 +14°C° 0 mm 2 mps 717 mmHg 48%
    19:00 +12°C° 0 mm 2 mps 717 mmHg 55%
    20:00 +9°C° 0 mm 2 mps 717 mmHg 62%
    21:00 +10°C° 0 mm 1 mps 717 mmHg 65%
    22:00 +9°C° 0 mm 1 mps 717 mmHg 68%
    23:00 +9°C° 0 mm 1 mps 717 mmHg 71%

    Day after tomorrow, 23 March, Saturday

    Time Temperature Precipitation Wind Pressure Humidity
    00:00 +8°C° 0 mm 1 mps 717 mmHg 73%
    01:00 +7°C° 0 mm 0 mps 717 mmHg 74%
    02:00 +6°C° 0 mm 0 mps 717 mmHg 76%
    03:00 +6°C° 0 mm 0 mps 717 mmHg 76%
    04:00 +6°C° 0 mm 0 mps 717 mmHg 77%
    05:00 +5°C° 0 mm 0 mps 716 mmHg 77%
    06:00 +6°C° 0 mm 0 mps 716 mmHg 74%
    07:00 +7°C° 0 mm 0 mps 717 mmHg 70%
    08:00 +8°C° 0 mm 0 mps 717 mmHg 66%
    09:00 +11°C° 0 mm 1 mps 717 mmHg 59%
    10:00 +13°C° 0 mm 1 mps 717 mmHg 52%
    11:00 +15°C° 0 mm 1 mps 717 mmHg 45%
    12:00 +16°C° 0 mm 2 mps 716 mmHg 42%
    13:00 +17°C° 0 mm 2 mps 716 mmHg 39%
    14:00 +18°C° 0 mm 2 mps 715 mmHg 37%
    15:00 +17°C° 0 mm 3 mps 715 mmHg 37%
    16:00 +17°C° 0 mm 3 mps 715 mmHg 37%
    17:00 +17°C° 0 mm 3 mps 714 mmHg 38%
    18:00 +15°C° 0 mm 2 mps 714 mmHg 44%
    19:00 +13°C° 0 mm 2 mps 714 mmHg 51%
    20:00 +11°C° 0 mm 1 mps 714 mmHg 57%
    21:00 +11°C° 0 mm 1 mps 715 mmHg 59%
    22:00 +10°C° 0 mm 1 mps 715 mmHg 62%
    23:00 +9°C° 0 mm 0 mps 715 mmHg 64%

    24 March, Sunday

    Time Temperature Precipitation Wind Pressure Humidity
    00:00 +8°C° 0 mm 0 mps 715 mmHg 66%
    01:00 +8°C° 0 mm 0 mps 715 mmHg 68%
    02:00 +7°C° 0 mm 0 mps 715 mmHg 69%
    03:00 +7°C° 0 mm 0 mps 715 mmHg 72%
    04:00 +7°C° 0 mm 0 mps 715 mmHg 74%
    05:00 +6°C° 0 mm 0 mps 715 mmHg 76%
    06:00 +7°C° 0 mm 0 mps 715 mmHg 75%
    07:00 +8°C° 0 mm 0 mps 715 mmHg 73%
    08:00 +9°C° 0 mm 0 mps 716 mmHg 71%
    09:00 +11°C° 0 mm 1 mps 716 mmHg 62%
    10:00 +13°C° 0 mm 2 mps 716 mmHg 53%
    11:00 +15°C° 0 mm 2 mps 716 mmHg 44%
    12:00 +15°C° 0 mm 2 mps 715 mmHg 40%
    13:00 +16°C° 0 mm 2 mps 715 mmHg 36%
    14:00 +17°C° 0 mm 2 mps 715 mmHg 33%
    15:00 +17°C° 0 mm 2 mps 714 mmHg 33%
    16:00 +17°C° 0 mm 2 mps 714 mmHg 34%
    17:00 +16°C° 0 mm 2 mps 713 mmHg 35%
    18:00 +15°C° 0 mm 2 mps 713 mmHg 41%
    19:00 +13°C° 0 mm 1 mps 713 mmHg 47%
    20:00 +11°C° 0 mm 1 mps 713 mmHg 53%
    21:00 +11°C° 0 mm 1 mps 713 mmHg 55%
    22:00 +9°C° 0 mm 0 mps 713 mmHg 57%
    23:00 +8°C° 0 mm 0 mps 713 mmHg 60%

    25 March, Monday

    Time Temperature Precipitation Wind Pressure Humidity
    00:00 +8°C° 0 mm 0 mps 713 mmHg 61%
    01:00 +8°C° 0 mm 0 mps 713 mmHg 62%
    02:00 +8°C° 0 mm 1 mps 713 mmHg 63%
    03:00 +8°C° 0 mm 1 mps 712 mmHg 64%
    04:00 +8°C° 0 mm 1 mps 712 mmHg 66%
    05:00 +7°C° 0 mm 1 mps 712 mmHg 67%
    06:00 +8°C° 0 mm 1 mps 712 mmHg 64%
    07:00 +9°C° 0 mm 1 mps 712 mmHg 62%
    08:00 +10°C° 0 mm 1 mps 712 mmHg 60%
    09:00 +12°C° 0 mm 1 mps 712 mmHg 51%
    10:00 +14°C° 0 mm 2 mps 712 mmHg 43%
    11:00 +16°C° 0 mm 2 mps 712 mmHg 34%
    12:00 +16°C° 0 mm 2 mps 711 mmHg 35%
    13:00 +17°C° 0 mm 3 mps 711 mmHg 36%
    14:00 +18°C° 0 mm 3 mps 710 mmHg 36%
    15:00 +17°C° 0 mm 3 mps 710 mmHg 39%
    16:00 +17°C° 0 mm 3 mps 710 mmHg 42%
    17:00 +16°C° 0 mm 3 mps 710 mmHg 45%
    18:00 +14°C° 0.2 mm 3 mps 710 mmHg 54%
    19:00 +13°C° 0.2 mm 2 mps 710 mmHg 62%
    20:00 +12°C° 0.2 mm 2 mps 710 mmHg 71%
    21:00 +10°C° 0.2 mm 2 mps 711 mmHg 75%
    22:00 +10°C° 0.2 mm 2 mps 711 mmHg 78%
    23:00 +9°C° 0.2 mm 2 mps 711 mmHg 82%

    26 March, Tuesday

    Time Temperature Precipitation Wind Pressure Humidity
    00:00 +9°C° 0.1 mm 2 mps 711 mmHg 81%
    01:00 +8°C° 0.1 mm 2 mps 711 mmHg 80%
    02:00 +8°C° 0.1 mm 2 mps 711 mmHg 80%
    03:00 +7°C° 0.1 mm 2 mps 711 mmHg 80%
    04:00 +6°C° 0.1 mm 2 mps 711 mmHg 81%
    05:00 +6°C° 0.1 mm 2 mps 711 mmHg 82%
    06:00 +5°C° 0 mm 3 mps 711 mmHg 77%
    07:00 +4°C° 0 mm 3 mps 711 mmHg 73%
    08:00 +4°C° 0 mm 3 mps 711 mmHg 68%
    09:00 +5°C° 0 mm 4 mps 711 mmHg 61%
    10:00 +6°C° 0 mm 4 mps 711 mmHg 54%
    11:00 +7°C° 0 mm 4 mps 711 mmHg 47%
    12:00 +7°C° 0 mm 5 mps 710 mmHg 47%
    13:00 +8°C° 0 mm 5 mps 710 mmHg 47%
    14:00 +8°C° 0 mm 5 mps 709 mmHg 46%
    15:00 +7°C° 0 mm 5 mps 709 mmHg 48%
    16:00 +7°C° 0 mm 5 mps 709 mmHg 49%
    17:00 +6°C° 0 mm 5 mps 709 mmHg 51%
    18:00 +5°C° 0 mm 4 mps 709 mmHg 54%
    19:00 +4°C° 0 mm 4 mps 709 mmHg 57%
    20:00 +4°C° 0 mm 3 mps 709 mmHg 60%
    21:00 +3°C° 0.3 mm 4 mps 709 mmHg 64%
    22:00 +3°C° 0.3 mm 4 mps 709 mmHg 69%
    23:00 +2°C° 0.3 mm 5 mps 710 mmHg 73%
    Show more